Location: *
(49.6619°S, 177.4603°W)
Time: 05:09:00
(UTC+00:00)

ATLAS 3B R/B - Pass Details

Date: 31 January 2023
Orbit: 961 x 1233 km, 63.8° (Epoch: 31 March)

Event Time Altitude Azimuth Distance (km) Brightness Sun altitude
Rises 09:31:56 0° 227° (SW) 3,852 7.4 -15.1°
Reaches altitude 10° 09:34:54 10° 218° (SW) 2,856 6.3 -15.4°
Maximum altitude 09:41:00 36° 152° (SSE) 1,544 3.8 -15.9°
Drops below altitude 10° 09:46:50 10° 86° (E) 2,731 4.5 -16.5°
Enters shadow 09:47:14 - 85° (E) 2,860 4.6 -16.5°
